Tracking 19795 objects as of 18-Jul-2019
HD Live streaming from Space Station
objects crossing your sky now

NOAA 16 DEB

Track NOAA 16 DEB now!
10-day predictions


NORAD ID: 41414
Int'l Code: 2000-055KT
Perigee: 766.5 km
Apogee: 863.2 km
Inclination: 99.0 °
Period: 101.0 minutes
Semi major axis: 7185 km
RCS: Unknown
Launch date: September 21, 2000
Source: United States (US)
Launch site: AIR FORCE WESTERN TEST RANGE (AFWTR)

Note: This is SATELLITE DEBRIS
aabbcc
Your satellite tracking list
Your tracking list is empty




NASA's NSSDC Master Catalog

Two Line Element Set (TLE):
1 41414U 00055KT  19198.53659850 +.00000973 +00000-0 +42381-3 0  9993
2 41414 098.9679 310.6169 0067327 279.2644 080.0924 14.25235822177090
Source of the keplerian elements: AFSPC